Terug naar catalogus

STARLINK-34465

ActiefCommunicatieVLEO
NORAD 64438·PAYLOAD·🇺🇸 United States

Gelanceerd Jun 18, 2025 vanaf Cape Canaveral Space Force Station

Loading…

Volgende Passages (komende 24 uur)

TLE

VersSource: CelesTrak SupGP

Epoch: Sep 15, 2026, 03:52 UTC

1 64438C 25130A   26258.16159722 -.00009769  00000+0 -28856-3 0  2584
2 64438  53.1575 284.9419 0001221  97.8951 194.9981 15.34404196    14

Volg STARLINK-34465 in realtime met AllMySat

Download on the App Store